DLH4PR EDDF-LIMC

Flight info

Callsign DLH4PR
Flight time 1h 16m
Altitude 33000
Route ANEKI2L ANEKI Y163 NATOR DCT DITON DCT BASGO Z424 RIXUV
Aircraft A320/M-SDE3FGHIRWY/LB1

Departure

Time 2026-05-05 19:23
Airport Frankfurt Main Airport (EDDF)

Arrival

Time 2026-05-05 20:40
Airport Milan Malpensa International Airport (LIMC)
Time Latitude Longitude Altitude Speed Heading
2026-05-05 18:33 50.03289 8.58066 365 ft 0 kts 250°
2026-05-05 19:09 50.03294 8.58087 362 ft 4 kts 250°
2026-05-05 19:09 50.03304 8.58126 359 ft 4 kts 250°
2026-05-05 19:09 50.03311 8.58158 363 ft 4 kts 261°
2026-05-05 19:10 50.03310 8.58197 360 ft 4 kts 300°
2026-05-05 19:10 50.03292 8.58224 361 ft 4 kts 339°
2026-05-05 19:10 50.03267 8.58234 360 ft 4 kts
2026-05-05 19:10 50.03247 8.58233 363 ft 0 kts
2026-05-05 19:13 50.03302 8.58219 362 ft 13 kts 340°
2026-05-05 19:13 50.03384 8.58171 361 ft 11 kts 339°
2026-05-05 19:13 50.03451 8.58132 359 ft 9 kts 340°
2026-05-05 19:14 50.03504 8.58102 361 ft 5 kts 339°
2026-05-05 19:14 50.03515 8.58095 358 ft 0 kts 339°
2026-05-05 19:15 50.03540 8.58077 360 ft 9 kts 328°
2026-05-05 19:16 50.03556 8.57969 358 ft 14 kts 251°
2026-05-05 19:16 50.03516 8.57790 360 ft 21 kts 248°
2026-05-05 19:16 50.03456 8.57552 356 ft 25 kts 249°
2026-05-05 19:16 50.03395 8.57291 358 ft 26 kts 249°
2026-05-05 19:17 50.03329 8.57016 356 ft 28 kts 250°
2026-05-05 19:17 50.03261 8.56728 356 ft 30 kts 250°
2026-05-05 19:17 50.03189 8.56424 355 ft 30 kts 250°
2026-05-05 19:17 50.03116 8.56118 355 ft 31 kts 249°
2026-05-05 19:18 50.03043 8.55815 354 ft 29 kts 249°
2026-05-05 19:18 50.02973 8.55521 353 ft 28 kts 250°
2026-05-05 19:18 50.02903 8.55237 347 ft 28 kts 249°
2026-05-05 19:18 50.02831 8.54951 346 ft 29 kts 248°
2026-05-05 19:19 50.02764 8.54648 339 ft 30 kts 250°
2026-05-05 19:19 50.02691 8.54340 339 ft 31 kts 251°
2026-05-05 19:19 50.02624 8.54016 332 ft 32 kts 249°
2026-05-05 19:19 50.02544 8.53687 335 ft 32 kts 249°
2026-05-05 19:20 50.02472 8.53382 336 ft 29 kts 248°
2026-05-05 19:20 50.02404 8.53099 333 ft 23 kts 250°
2026-05-05 19:20 50.02355 8.52899 334 ft 19 kts 249°
2026-05-05 19:20 50.02321 8.52761 332 ft 3 kts 249°
2026-05-05 19:21 50.02321 8.52760 331 ft 0 kts 249°
2026-05-05 19:21 50.02306 8.52698 334 ft 10 kts 249°
2026-05-05 19:22 50.02274 8.52613 331 ft 8 kts 214°
2026-05-05 19:22 50.02226 8.52605 335 ft 6 kts 178°
2026-05-05 19:22 50.02092 8.52609 332 ft 50 kts 179°
2026-05-05 19:22 50.01502 8.52613 333 ft 116 kts 179°
2026-05-05 19:23 50.00517 8.52621 335 ft 164 kts 180°
2026-05-05 19:23 49.99355 8.52643 923 ft 168 kts 179°
2026-05-05 19:23 49.98188 8.52715 1653 ft 169 kts 180°
2026-05-05 19:23 49.96945 8.52810 2081 ft 190 kts 179°
2026-05-05 19:24 49.95551 8.52914 2404 ft 213 kts 179°
2026-05-05 19:24 49.94034 8.53028 3004 ft 225 kts 179°
2026-05-05 19:24 49.92433 8.53149 3728 ft 231 kts 179°
2026-05-05 19:24 49.90830 8.53268 3960 ft 230 kts 180°
2026-05-05 19:25 49.89255 8.53380 4016 ft 229 kts 180°
2026-05-05 19:25 49.87653 8.53495 4290 ft 233 kts 180°
2026-05-05 19:25 49.86047 8.53609 5266 ft 230 kts 180°
2026-05-05 19:25 49.84438 8.53721 6130 ft 233 kts 180°
2026-05-05 19:26 49.82809 8.53831 6930 ft 236 kts 180°
2026-05-05 19:26 49.81160 8.53941 7728 ft 239 kts 180°
2026-05-05 19:26 49.79487 8.54054 8548 ft 242 kts 180°
2026-05-05 19:26 49.77790 8.54100 9363 ft 245 kts 186°
2026-05-05 19:27 49.76007 8.53876 9747 ft 268 kts 187°
2026-05-05 19:27 49.74076 8.53612 10086 ft 290 kts 187°
2026-05-05 19:27 49.71986 8.53320 10353 ft 313 kts 187°
2026-05-05 19:27 49.69733 8.53007 10650 ft 333 kts 187°
2026-05-05 19:28 49.67393 8.52692 11271 ft 341 kts 186°
2026-05-05 19:28 49.65041 8.52387 11978 ft 345 kts 186°
2026-05-05 19:28 49.62643 8.52080 12734 ft 348 kts 186°
2026-05-05 19:28 49.60217 8.51767 13453 ft 352 kts 186°
2026-05-05 19:29 49.57761 8.51444 14111 ft 356 kts 186°
2026-05-05 19:29 49.55286 8.51119 14753 ft 359 kts 186°
2026-05-05 19:29 49.52780 8.50790 15389 ft 363 kts 186°
2026-05-05 19:29 49.50258 8.50459 16019 ft 366 kts 186°
2026-05-05 19:30 49.47709 8.50129 16642 ft 369 kts 186°
2026-05-05 19:30 49.45130 8.49794 17256 ft 373 kts 186°
2026-05-05 19:30 49.42526 8.49456 17865 ft 376 kts 186°
2026-05-05 19:30 49.39904 8.49113 18424 ft 379 kts 186°
2026-05-05 19:31 49.37269 8.48763 18947 ft 382 kts 186°
2026-05-05 19:31 49.34610 8.48409 19466 ft 385 kts 185°
2026-05-05 19:31 49.31936 8.48055 19987 ft 387 kts 185°
2026-05-05 19:31 49.29239 8.47703 20506 ft 390 kts 185°
2026-05-05 19:32 49.26525 8.47388 21010 ft 393 kts 184°
2026-05-05 19:32 49.23782 8.47149 21512 ft 395 kts 183°
2026-05-05 19:32 49.21031 8.46961 21993 ft 398 kts 182°
2026-05-05 19:32 49.18292 8.46791 22527 ft 399 kts 182°
2026-05-05 19:33 49.15509 8.46615 23017 ft 401 kts 182°
2026-05-05 19:33 49.12707 8.46428 23474 ft 404 kts 182°
2026-05-05 19:33 49.09881 8.46228 23857 ft 406 kts 182°
2026-05-05 19:33 49.07054 8.46017 24251 ft 409 kts 182°
2026-05-05 19:34 49.04199 8.45800 24636 ft 411 kts 182°
2026-05-05 19:34 49.01338 8.45584 25018 ft 413 kts 182°
2026-05-05 19:34 48.98463 8.45369 25400 ft 414 kts 182°
2026-05-05 19:35 48.92669 8.44937 26196 ft 417 kts 182°
2026-05-05 19:35 48.89767 8.44716 26570 ft 419 kts 182°
2026-05-05 19:35 48.86846 8.44497 26927 ft 422 kts 182°
2026-05-05 19:35 48.83941 8.44286 27287 ft 424 kts 182°
2026-05-05 19:36 48.80990 8.44072 27630 ft 426 kts 182°
2026-05-05 19:36 48.78018 8.43855 27971 ft 428 kts 182°
2026-05-05 19:36 48.75044 8.43636 28327 ft 429 kts 183°
2026-05-05 19:36 48.72062 8.43418 28686 ft 430 kts 183°
2026-05-05 19:37 48.69066 8.43197 28999 ft 431 kts 183°
2026-05-05 19:37 48.66058 8.42976 29314 ft 433 kts 183°
2026-05-05 19:37 48.63040 8.42757 29611 ft 435 kts 183°
2026-05-05 19:37 48.60013 8.42539 29932 ft 436 kts 183°
2026-05-05 19:38 48.58000 8.42393 30183 ft 435 kts 183°
2026-05-05 19:38 48.54981 8.42174 30549 ft 434 kts 183°
2026-05-05 19:38 48.51960 8.41957 30908 ft 434 kts 183°
2026-05-05 19:38 48.48987 8.41740 31255 ft 433 kts 183°
2026-05-05 19:39 48.45941 8.41517 31605 ft 432 kts 183°
2026-05-05 19:39 48.42935 8.41298 31956 ft 432 kts 183°
2026-05-05 19:39 48.39939 8.41081 32314 ft 431 kts 183°
2026-05-05 19:39 48.36949 8.40868 32664 ft 430 kts 183°
2026-05-05 19:40 48.33954 8.40655 32836 ft 430 kts 184°
2026-05-05 19:40 48.27997 8.40236 32863 ft 428 kts 184°
2026-05-05 19:41 48.22049 8.39804 32873 ft 427 kts 184°
2026-05-05 19:41 48.16103 8.39375 32871 ft 427 kts 184°
2026-05-05 19:42 48.10166 8.38960 32874 ft 427 kts 184°
2026-05-05 19:42 48.04264 8.38539 32874 ft 427 kts 184°
2026-05-05 19:43 47.98327 8.38112 32875 ft 427 kts 184°
2026-05-05 19:43 47.92401 8.37682 32872 ft 426 kts 184°
2026-05-05 19:44 47.86487 8.37262 32881 ft 426 kts 185°
2026-05-05 19:44 47.80558 8.36845 32881 ft 426 kts 185°
2026-05-05 19:45 47.74642 8.36427 32881 ft 426 kts 185°
2026-05-05 19:45 47.68784 8.36015 32876 ft 425 kts 185°
2026-05-05 19:46 47.62879 8.35602 32888 ft 424 kts 185°
2026-05-05 19:46 47.56984 8.35196 32892 ft 424 kts 185°
2026-05-05 19:47 47.51244 8.34800 32892 ft 423 kts 185°
2026-05-05 19:47 47.45401 8.34385 32883 ft 422 kts 186°
2026-05-05 19:48 47.39539 8.33972 32883 ft 421 kts 186°
2026-05-05 19:48 47.33769 8.33576 32892 ft 420 kts 186°
2026-05-05 19:49 47.27953 8.33641 32899 ft 423 kts 178°
2026-05-05 19:49 47.22093 8.34461 32909 ft 422 kts 179°
2026-05-05 19:50 47.16389 8.35235 32912 ft 422 kts 179°
2026-05-05 19:50 47.10540 8.36027 32900 ft 423 kts 179°
2026-05-05 19:51 47.04723 8.36814 32900 ft 422 kts 179°
2026-05-05 19:51 46.98956 8.37597 32943 ft 421 kts 179°
2026-05-05 19:52 46.93140 8.38391 32942 ft 419 kts 179°
2026-05-05 19:52 46.87325 8.39179 32945 ft 419 kts 179°
2026-05-05 19:53 46.81512 8.39965 32924 ft 418 kts 180°
2026-05-05 19:53 46.75731 8.40748 32926 ft 417 kts 180°
2026-05-05 19:54 46.69949 8.41533 32638 ft 416 kts 180°
2026-05-05 19:54 46.67059 8.41926 32376 ft 416 kts 180°
2026-05-05 19:54 46.64199 8.42311 32115 ft 408 kts 180°
2026-05-05 19:54 46.61442 8.42687 31861 ft 397 kts 180°
2026-05-05 19:55 46.58717 8.43058 31313 ft 393 kts 180°
2026-05-05 19:55 46.55977 8.43416 30444 ft 397 kts 180°
2026-05-05 19:55 46.53204 8.43772 29417 ft 403 kts 180°
2026-05-05 19:55 46.50418 8.44136 28822 ft 399 kts 180°
2026-05-05 19:56 46.47675 8.44502 28244 ft 394 kts 179°
2026-05-05 19:56 46.44952 8.44869 27644 ft 390 kts 179°
2026-05-05 19:56 46.42259 8.45235 27054 ft 387 kts 179°
2026-05-05 19:56 46.39587 8.45597 26454 ft 384 kts 180°
2026-05-05 19:57 46.36936 8.45952 25899 ft 381 kts 179°
2026-05-05 19:57 46.34302 8.46303 25341 ft 378 kts 179°
2026-05-05 19:57 46.31694 8.46653 24788 ft 375 kts 179°
2026-05-05 19:57 46.29107 8.46995 24211 ft 372 kts 179°
2026-05-05 19:58 46.26532 8.47331 23615 ft 370 kts 179°
2026-05-05 19:58 46.23983 8.47679 23094 ft 365 kts 178°
2026-05-05 19:58 46.21530 8.48032 22972 ft 351 kts 178°
2026-05-05 19:58 46.19157 8.48382 23002 ft 334 kts 178°
2026-05-05 19:59 46.16896 8.48718 23009 ft 319 kts 178°
2026-05-05 19:59 46.14709 8.49040 22443 ft 320 kts 179°
2026-05-05 19:59 46.12450 8.49353 21542 ft 332 kts 178°
2026-05-05 19:59 46.10179 8.50012 21120 ft 333 kts 167°
2026-05-05 20:00 46.08031 8.51143 20990 ft 322 kts 164°
2026-05-05 20:00 46.05980 8.52259 20998 ft 307 kts 165°
2026-05-05 20:00 46.04024 8.53322 20951 ft 295 kts 165°
2026-05-05 20:00 46.02137 8.54342 20819 ft 285 kts 165°
2026-05-05 20:01 46.00311 8.55328 20692 ft 277 kts 165°
2026-05-05 20:01 45.98529 8.56307 20524 ft 271 kts 165°
2026-05-05 20:01 45.96772 8.57255 20250 ft 269 kts 165°
2026-05-05 20:01 45.95022 8.58182 19950 ft 270 kts 165°
2026-05-05 20:02 45.93206 8.59133 19232 ft 285 kts 165°
2026-05-05 20:02 45.91286 8.60060 18498 ft 297 kts 171°
2026-05-05 20:02 45.89250 8.60452 18068 ft 293 kts 182°
2026-05-05 20:02 45.87219 8.60248 17281 ft 301 kts 193°
2026-05-05 20:03 45.85095 8.59631 16410 ft 314 kts 194°
2026-05-05 20:03 45.82911 8.58995 15554 ft 326 kts 194°
2026-05-05 20:03 45.80681 8.58350 15132 ft 324 kts 194°
2026-05-05 20:03 45.78506 8.57729 14988 ft 313 kts 194°
2026-05-05 20:04 45.76442 8.57144 14979 ft 299 kts 194°
2026-05-05 20:04 45.74408 8.56736 14855 ft 293 kts 184°
2026-05-05 20:04 45.72399 8.56969 14731 ft 287 kts 176°
2026-05-05 20:04 45.70450 8.57347 14608 ft 279 kts 176°
2026-05-05 20:05 45.68557 8.57713 14357 ft 271 kts 176°
2026-05-05 20:05 45.66696 8.58069 13873 ft 269 kts 176°
2026-05-05 20:05 45.64845 8.58416 13324 ft 267 kts 176°
2026-05-05 20:05 45.63001 8.58732 12765 ft 266 kts 176°
2026-05-05 20:06 45.61173 8.59065 12237 ft 264 kts 175°
2026-05-05 20:06 45.59354 8.59422 11713 ft 262 kts 174°
2026-05-05 20:06 45.57552 8.59789 11196 ft 261 kts 173°
2026-05-05 20:06 45.55767 8.60240 10713 ft 261 kts 171°
2026-05-05 20:07 45.53992 8.60743 10424 ft 259 kts 171°
2026-05-05 20:07 45.52229 8.61255 10128 ft 258 kts 170°
2026-05-05 20:07 45.50478 8.61759 9825 ft 256 kts 170°
2026-05-05 20:07 45.48732 8.62256 9483 ft 255 kts 171°
2026-05-05 20:08 45.46991 8.62746 9148 ft 254 kts 171°
2026-05-05 20:08 45.45262 8.63228 8795 ft 253 kts 171°
2026-05-05 20:08 45.43539 8.63705 8448 ft 251 kts 171°
2026-05-05 20:08 45.41828 8.64177 8173 ft 247 kts 171°
2026-05-05 20:09 45.40175 8.64633 8054 ft 237 kts 171°
2026-05-05 20:09 45.38602 8.65066 7900 ft 223 kts 171°
2026-05-05 20:09 45.37100 8.65482 7634 ft 217 kts 171°
2026-05-05 20:09 45.35626 8.65891 7371 ft 215 kts 171°
2026-05-05 20:10 45.34163 8.66298 7081 ft 214 kts 171°
2026-05-05 20:10 45.32710 8.66700 6797 ft 213 kts 171°
2026-05-05 20:10 45.31260 8.67099 6515 ft 212 kts 170°
2026-05-05 20:10 45.29816 8.67499 6226 ft 211 kts 170°
2026-05-05 20:11 45.28385 8.67894 6038 ft 208 kts 170°
2026-05-05 20:11 45.26970 8.68280 6011 ft 210 kts 170°
2026-05-05 20:11 45.25530 8.68657 6007 ft 211 kts 171°
2026-05-05 20:11 45.24081 8.69031 6006 ft 211 kts 171°
2026-05-05 20:12 45.22635 8.69406 6006 ft 211 kts 171°
2026-05-05 20:12 45.21187 8.69779 6006 ft 211 kts 171°
2026-05-05 20:12 45.19742 8.70149 6003 ft 211 kts 171°
2026-05-05 20:12 45.18294 8.70521 5984 ft 212 kts 171°
2026-05-05 20:13 45.16846 8.70892 5982 ft 211 kts 171°
2026-05-05 20:13 45.15399 8.71265 5980 ft 211 kts 171°
2026-05-05 20:13 45.13951 8.71640 5980 ft 212 kts 171°
2026-05-05 20:13 45.12502 8.72014 5980 ft 211 kts 171°
2026-05-05 20:14 45.11056 8.72385 5985 ft 211 kts 171°
2026-05-05 20:14 45.09607 8.72759 5982 ft 212 kts 171°
2026-05-05 20:14 45.08157 8.73134 5980 ft 211 kts 171°
2026-05-05 20:14 45.06713 8.73498 5981 ft 211 kts 173°
2026-05-05 20:15 45.05278 8.73284 5979 ft 209 kts 205°
2026-05-05 20:15 45.04210 8.71925 5984 ft 211 kts 240°
2026-05-05 20:15 45.03907 8.69909 5979 ft 216 kts 276°
2026-05-05 20:15 45.04496 8.67968 5979 ft 221 kts 310°
2026-05-05 20:16 45.05788 8.66806 5981 ft 225 kts 346°
2026-05-05 20:16 45.07340 8.66855 5981 ft 227 kts 20°
2026-05-05 20:16 45.08612 8.68104 5979 ft 225 kts 56°
2026-05-05 20:16 45.09168 8.70116 5984 ft 221 kts 90°
2026-05-05 20:17 45.08830 8.72170 5981 ft 214 kts 125°
2026-05-05 20:17 45.07743 8.73527 5985 ft 210 kts 160°
2026-05-05 20:17 45.06340 8.74101 5982 ft 211 kts 169°
2026-05-05 20:17 45.04899 8.74509 5981 ft 211 kts 171°
2026-05-05 20:18 45.03453 8.74893 5982 ft 211 kts 171°
2026-05-05 20:18 45.02009 8.75273 5980 ft 211 kts 171°
2026-05-05 20:18 45.00583 8.75646 5983 ft 211 kts 171°
2026-05-05 20:18 44.99134 8.76022 5979 ft 211 kts 171°
2026-05-05 20:19 44.97689 8.76396 5977 ft 211 kts 171°
2026-05-05 20:19 44.96248 8.76771 5978 ft 211 kts 171°
2026-05-05 20:19 44.94805 8.77146 5980 ft 211 kts 171°
2026-05-05 20:19 44.93358 8.77520 5978 ft 211 kts 171°
2026-05-05 20:20 44.91914 8.77893 5977 ft 211 kts 171°
2026-05-05 20:20 44.90479 8.78264 6147 ft 210 kts 171°
2026-05-05 20:20 44.88995 8.78647 6645 ft 222 kts 171°
2026-05-05 20:20 44.87461 8.79069 6912 ft 224 kts 171°
2026-05-05 20:21 44.85943 8.79515 6971 ft 222 kts 171°
2026-05-05 20:21 44.84433 8.79966 6984 ft 221 kts 171°
2026-05-05 20:21 44.82933 8.80430 6978 ft 220 kts 171°
2026-05-05 20:21 44.81437 8.80897 6979 ft 220 kts 171°
2026-05-05 20:22 44.79941 8.81363 6984 ft 220 kts 171°
2026-05-05 20:22 44.78447 8.81843 6984 ft 221 kts 167°
2026-05-05 20:22 44.77525 8.82467 6976 ft 226 kts 146°
2026-05-05 20:22 44.76582 8.84250 6982 ft 236 kts 113°
2026-05-05 20:23 44.76450 8.86566 6981 ft 245 kts 82°
2026-05-05 20:23 44.76898 8.88893 6978 ft 248 kts 75°
2026-05-05 20:23 44.77445 8.91195 6982 ft 248 kts 74°
2026-05-05 20:23 44.78007 8.93489 6982 ft 247 kts 73°
2026-05-05 20:24 44.78629 8.95745 6978 ft 249 kts 62°
2026-05-05 20:24 44.79775 8.97563 6978 ft 251 kts 34°
2026-05-05 20:24 44.81381 8.98462 6974 ft 249 kts
2026-05-05 20:24 44.83082 8.98275 6987 ft 246 kts 343°
2026-05-05 20:25 44.84752 8.97735 6979 ft 246 kts 344°
2026-05-05 20:25 44.86416 8.97197 6964 ft 243 kts 344°
2026-05-05 20:25 44.88027 8.96679 6842 ft 235 kts 344°
2026-05-05 20:25 44.89613 8.96172 6730 ft 229 kts 344°
2026-05-05 20:26 44.91138 8.95683 6606 ft 220 kts 344°
2026-05-05 20:26 44.92605 8.95215 6464 ft 213 kts 344°
2026-05-05 20:26 44.94027 8.94757 6221 ft 211 kts 344°
2026-05-05 20:26 44.95458 8.94294 5955 ft 210 kts 344°
2026-05-05 20:27 44.96883 8.93832 5686 ft 210 kts 344°
2026-05-05 20:27 44.98303 8.93373 5424 ft 209 kts 345°
2026-05-05 20:27 44.99718 8.92917 5178 ft 208 kts 345°
2026-05-05 20:27 45.01127 8.92464 4927 ft 207 kts 345°
2026-05-05 20:28 45.02532 8.92013 4669 ft 207 kts 345°
2026-05-05 20:28 45.03934 8.91560 4411 ft 206 kts 346°
2026-05-05 20:28 45.05321 8.91113 4194 ft 203 kts 346°
2026-05-05 20:28 45.06687 8.90673 4022 ft 200 kts 346°
2026-05-05 20:29 45.08042 8.90236 3976 ft 200 kts 346°
2026-05-05 20:29 45.09406 8.89795 3982 ft 201 kts 346°
2026-05-05 20:29 45.10770 8.89354 3981 ft 201 kts 346°
2026-05-05 20:29 45.12135 8.88915 3982 ft 201 kts 346°
2026-05-05 20:30 45.13501 8.88475 3978 ft 201 kts 346°
2026-05-05 20:30 45.14847 8.88041 3980 ft 201 kts 346°
2026-05-05 20:30 45.16213 8.87597 3981 ft 201 kts 346°
2026-05-05 20:30 45.17578 8.87154 3989 ft 200 kts 346°
2026-05-05 20:31 45.18932 8.86716 3985 ft 199 kts 346°
2026-05-05 20:31 45.20286 8.86278 3983 ft 199 kts 346°
2026-05-05 20:31 45.21637 8.85839 3984 ft 199 kts 346°
2026-05-05 20:31 45.22987 8.85397 3986 ft 199 kts 346°
2026-05-05 20:32 45.24337 8.84956 3982 ft 198 kts 347°
2026-05-05 20:32 45.25681 8.84519 4001 ft 198 kts 347°
2026-05-05 20:32 45.27024 8.84081 4003 ft 198 kts 347°
2026-05-05 20:32 45.28363 8.83646 4005 ft 198 kts 347°
2026-05-05 20:33 45.29689 8.83209 4003 ft 197 kts 344°
2026-05-05 20:33 45.30918 8.82351 4013 ft 196 kts 331°
2026-05-05 20:33 45.32212 8.81738 4123 ft 198 kts 351°
2026-05-05 20:33 45.33582 8.81433 4128 ft 199 kts 349°
2026-05-05 20:34 45.34942 8.81064 4082 ft 197 kts 348°
2026-05-05 20:34 45.36281 8.80691 3972 ft 195 kts 349°
2026-05-05 20:34 45.37616 8.80333 4043 ft 191 kts 349°
2026-05-05 20:34 45.38968 8.79969 4004 ft 197 kts 349°
2026-05-05 20:35 45.40314 8.79596 4005 ft 197 kts 349°
2026-05-05 20:35 45.41665 8.79225 4005 ft 197 kts 349°
2026-05-05 20:35 45.43017 8.78854 4003 ft 194 kts 349°
2026-05-05 20:35 45.44309 8.78500 4004 ft 188 kts 349°
2026-05-05 20:36 45.45598 8.78146 3887 ft 188 kts 349°
2026-05-05 20:36 45.46883 8.77794 3675 ft 188 kts 349°
2026-05-05 20:36 45.48158 8.77444 3440 ft 190 kts 349°
2026-05-05 20:36 45.49471 8.77083 3189 ft 193 kts 350°
2026-05-05 20:37 45.50784 8.76722 2920 ft 190 kts 350°
2026-05-05 20:37 45.52063 8.76370 2693 ft 185 kts 350°
2026-05-05 20:37 45.53310 8.76027 2424 ft 178 kts 350°
2026-05-05 20:37 45.54475 8.75706 2205 ft 162 kts 351°
2026-05-05 20:38 45.55534 8.75414 1985 ft 153 kts 351°
2026-05-05 20:38 45.56570 8.75129 1776 ft 149 kts 351°
2026-05-05 20:38 45.57583 8.74852 1583 ft 146 kts 351°
2026-05-05 20:38 45.58574 8.74587 1369 ft 143 kts 350°
2026-05-05 20:39 45.59536 8.74323 1174 ft 141 kts 349°
2026-05-05 20:39 45.60488 8.74057 967 ft 139 kts 348°
2026-05-05 20:39 45.61433 8.73786 817 ft 138 kts 349°
2026-05-05 20:39 45.62343 8.73540 749 ft 122 kts 349°
2026-05-05 20:40 45.63048 8.73341 743 ft 79 kts 348°
2026-05-05 20:40 45.63472 8.73222 745 ft 49 kts 348°
2026-05-05 20:40 45.63726 8.73064 747 ft 29 kts 316°
2026-05-05 20:40 45.63827 8.72891 747 ft 15 kts 304°
2026-05-05 20:41 45.63872 8.72793 747 ft 13 kts 304°
2026-05-05 20:41 45.63925 8.72662 749 ft 14 kts 285°
2026-05-05 20:41 45.63937 8.72580 749 ft 2 kts 275°
2026-05-05 20:41 45.63921 8.72569 750 ft 7 kts 187°
2026-05-05 20:42 45.63850 8.72594 748 ft 13 kts 168°
2026-05-05 20:42 45.63720 8.72631 752 ft 21 kts 169°
2026-05-05 20:42 45.63592 8.72665 751 ft 16 kts 169°
2026-05-05 20:42 45.63486 8.72694 752 ft 15 kts 169°
2026-05-05 20:43 45.63409 8.72640 750 ft 13 kts 248°
2026-05-05 20:43 45.63390 8.72520 752 ft 12 kts 257°
2026-05-05 20:43 45.63378 8.72420 750 ft 6 kts 259°
2026-05-05 20:43 45.63370 8.72363 748 ft 3 kts 259°
2026-05-05 20:44 45.63370 8.72360 748 ft 1 kts 258°
2026-05-05 20:44 45.63367 8.72337 749 ft 7 kts 259°
2026-05-05 20:44 45.63350 8.72216 747 ft 14 kts 259°
2026-05-05 20:44 45.63333 8.72088 747 ft 11 kts 258°
2026-05-05 20:45 45.63299 8.71970 749 ft 8 kts 208°
2026-05-05 20:45 45.63240 8.71978 748 ft 8 kts 168°
2026-05-05 20:45 45.63177 8.71995 750 ft 15 kts 169°
2026-05-05 20:46 45.63033 8.72034 748 ft 23 kts 169°
2026-05-05 20:46 45.62870 8.72082 752 ft 25 kts 168°
2026-05-05 20:46 45.62730 8.72118 750 ft 17 kts 172°
2026-05-05 20:46 45.62675 8.72023 752 ft 13 kts 263°
2026-05-05 20:47 45.62661 8.71902 753 ft 12 kts 259°
2026-05-05 20:47 45.62623 8.71840 751 ft 8 kts 196°
2026-05-05 20:47 45.62587 8.71794 751 ft 6 kts 232°
2026-05-05 20:47 45.62561 8.71748 751 ft 5 kts 230°
2026-05-05 20:48 45.62556 8.71740 751 ft 0 kts 230°